Погода в Камышине

Погода в Камышине : погода сейчас, прогноз погоды и архив. Всё, что Вы хотите узнать о погоде в Камышине!

Хотите узнать прогноз погоды в Камышине? Тогда Вам сюда: Погода в Камышине

Поиск расширенной информации на нашем сайте:

Другие новости

Новости СМИ2

Главная страница сайта

Новости сайта

02.10.2013

Напоминаем, что на нашем новом сайте вы можете получить высокодетализированные прогнозы погоды по пунктам России, СНГ и мира (включающие важные для авиации метеовеличины, такие как направление и скорость ветра, видимость, явления погоды, количество и форма облачности, нижняя и верхняя граница облачности), а также ознакомиться с разнообразными материалами по авиационной метеорологии и подборкой полезных ссылок на эту тему.

Сайт Метеоцентр.Азия посвящён разработке технологий оптимизации авиаметеорологического обслуживания, включая проектирование и перспективное создание нескольких автоматизированных авиаметеорологических систем:
- система выпуска высокодетальных прогностических карт явлений погоды для нижнего воздушного пространства по России и ближнему зарубежью;
- система верификации прогнозов TAF (выпускаемых синоптиками официальных АМСГ РФ и ближнего зарубежья) и AUTOTAF (выпускаемых сайтом Метеоцентр.Азия) - выявление ошибок, онлайн-сопоставление с фактической погодой METAR, автоматическое внесение коррективов в прогнозы при резком отклонении фактической погоды от прогноза, подсчёт оправдываемости прогнозов по элементам и в целом;
- система обработки, анализа и отображения авиаметеорологической информации для применения провайдерами метеорологической информации.

Рекомендуем: Навгеотех - геодезическое оборудование: GPS приемники, тахеометры, нивелиры, теодолиты, рулетки..

Погода в Камышине - сегодня

Время (UTC), дата Ветер
(°,м/с) 
Видим.   Явления Облачность Т
(°С)
Тd
(°С)
f(%) Тe
(°С)
Pmin
(гПа)
dP
(гПа)
Po
(мм)
O2
(г/м3)
Тmin Tmax R s Состояние
почвы
09 22.03.17 040 (СВ) 10 км  [диам. гололёда 8 мм]  10/8 300 м средняя 
[St|Ac As]
-1.7 -3.7 86 -3  1017.3  0.7  751  305           
12 22.03.17 040 (СВ) 10 км  [диам. гололёда 8 мм]  10/8 300 м средняя 
[St|Ac As]
-1.5 -3.3 88 -2  1018.3  752  305           
15 22.03.17 040 (СВ) 10 км  [диам. гололёда 8 мм]  10/10 300 м 
[St]
-1.8 -3.2 90 -3  1020.2  1.9  753  306    -1.3       
18 22.03.17 050 (СВ) 10 км  [диам. гололёда 8 мм]  10/10 300 м 
[St]
-2.3 -3.5 91 -3  1021.3  754  307           
21 22.03.17 050 (СВ) 10 км  [диам. гололёда 8 мм]  10/10 300 м 
[St]
-2.4 -3.6 91 -3  1021.8  0.5  755  307           
00 23.03.17 050 (СВ) 4000 м  дымка [диам. гололёда 8 мм]  10/10 200 м 
[St]
-2.4 -3.3 94 -2  1022.3  0.5  755  307           
03 23.03.17 040 (СВ) 2000 м  дымка [диам. гололёда 8 мм]  10/10 200 м 
[St]
-2.1 -2.9 94 -2  1023.4  1.1  756  307  -2.5         
06 23.03.17 060 (СВ) 0500 м  туман [диам. гололёда 8 мм]  ?/?  
-1.3 -2.1 94 -1  1024.2  0.8  756  306           
09 23.03.17 090 (В) 4000 м  дымка{туман}  10/10 200 м 
[St]
+0.5 -0.7 92 +1  1024.5  0.4  757  304           
12 23.03.17 170 (Ю) 10 км  {туман}  10/10 300 м 
[Sc]
+2.8 -0.5 79 +1  1024.6  0.2  757  302           
15 23.03.17 190 (Ю) 20000 м    10/10 600 м 
[Sc]
+2.1 -1.4 78 1024.9  0.3  757  303    +2.9       
18 23.03.17 210 (ЮЗ) 20000 м    10/10 600 м 
[Sc]
+2.1 -0.5 83 +3  1025.9  0.9  758  303           
21 23.03.17 220 (ЮЗ) 20000 м    9/9 300 м 
[Sc]
+1.4 -0.4 88 1025.7  -0.2  758  304           
00 24.03.17 240 (ЮЗ) 10 км  в посл. час ливневой дождь  10/10 300 м 
[Sc]
+2.7 +0.9 88 +1  1025.4  -0.2  757  302           
03 24.03.17 220 (ЮЗ) 4000 м  дымка  10/10 200 м 
[St]
+2.6 +1.5 92 +2  1025.8  0.4  758  302  +0.9    0.4     
06 24.03.17 190 (Ю) 2000 м  дымка  10/10 100 м 
[St]
+3.1 +2.2 94 +4  1026.4  0.6  758  302           
09 24.03.17 180 (Ю) 4000 м  дымка  10/10 200 м 
[St]
+4.8 +3.3 90 +4  1025.7  -0.5  758  300           
12 24.03.17 170 (Ю) 10 км    10/10 300 м 
[St]
+6.9 +3.4 78 +6  1024  -1.6  757  297           
15 24.03.17 190 (Ю) 10 км    9/9 600 м 
[Sc]
+6.5 +2.6 76 +4  1022  -2  755  297    +7.2       
18 24.03.17 200 (Ю) 5{10}  10 км    10/10 600 м 
[Sc]
+5.2 +1.8 79 +3  1020.4  -1.6  754  298           
21 24.03.17 180 (Ю) 10 км  {ливн. осадки}  10/10 600 м 
[Sc]
+4.7 +1.4 79 +2  1017.5  -2.9  752  298           
00 25.03.17 220 (ЮЗ) 6-10{11}  10 км  {ливн. осадки}  10/10 600 м 
[Sc]
+6.1 +2.1 75 +4  1014.6  -2.8  750  295           
03 25.03.17 200 (Ю) 6{11}  4000 м  слаб. ливневой дождь  10/10 200 м кучево-дожд. 
[Cb calv]
+4.8 +3.7 93 +2  1011.6  -3  747  295  +2.7       
06 25.03.17 220 (ЮЗ) 7-10{11}  4000 м  слаб. ливневой дождь  10/10 200 м кучево-дожд. 
[Cb calv]
+6.1 +4.2 88 +3  1009.8  -1.7  746  293           
09 25.03.17 300 (СЗ) 6{13}  10 км  в посл. час ливневой дождь  10/10 300 м 
[St]
+4.7 +2.5 86 +2  1009.5  -0.3  746  295           
Время (UTC), дата Ветер
(°,м/с) 
Видим.   Явления Облачность Т
(°С)
Тd
(°С)
f(%) Тe
(°С)
Pmin
(гПа)
dP
(гПа)
Po
(мм)
O2
(г/м3)
Тmin Tmax R s Состояние
почвы

Для получения пояснительной информации подведите курсор к названию столбца.

ПОГОДА в Камышине - архив

Всё, что Вы хотите узнать о погоде в Камышине - удобно и подробно!

Выберите нужную дату (начиная с 1 января 2015* года) и нажмите кнопку "Найти".
Будут отображены архивные сводки погоды по пункту Камышин, начиная с указанной даты.


Отображать данные в формате CSV (для использования в таблицах Excel)


Внимание! Наш архив погоды предназначен исключительно для личного некоммерческого использования в познавательных целях. Если Вам необходимы официальные справки о состоянии погоды (для производственных, юридических, коммерческих и т.п. целей), обращайтесь в органы Росгидромета.

*Примечание: данная дата относится к архиву по метеостанциям СССР (Россия, СНГ, Балтия).
Архив по метеостанциям Зарубежной Европы и Азии (кроме Китая) хранится 10 дней, по другим регионам земного шара (Китай, Африка, Америка, Австралия, Океания) - 1 день.

Камышин - район местоположения метеостанции


Название, широта, долгота, высота метеостанции:
Камышин 50.1°ш. 45.4°д. 119 м над ур. моря [Российская Федерация]

Дополнительная информация

В oтличие oт бoльшинства пoгoдных сайтoв мы публикуем пoдрoбную метеoинфoрмацию в детальнoм прoфессиoнальнoм фoрмате.

Характеристики температуры и влажнoсти вoздуха измеряются на высoте 2 м в тени вдали oт зданий и деревьев.
Скoрoсть ветра измеряется на высoте 10 м (на урoвне рoста челoвека скoрoсть ветра ниже в 1.5-2 раза). Если метеoстанция нахoдится в гoрoде или в лесу, тo скoрoсть ветра занижена на 2-4 м/с пo сравнению с oткрытым местoм. Скoрoсть ветра над акватoриями крупных рек и oзёр, а также на вершинах хoлмoв на 2-5 м/с выше, чем в oбычных услoвиях.
Атмoсфернoе давление в разных тoчках местнoсти мoжет значительнo oтличаться oт давления на метеoстанции, в зависимoсти oт услoвий рельефа (при пoдъёме на 10 м давление пoнижается примернo на 1 мм рт.ст.).